EW7806 Weather Reports


Display with metric or nautical units.
time (UTC)temp
F
wind
direction
speed
MPH
gust
MPH
rain 1hr
in
rain 24hr
in
rain mn
in
humidity
%
barometer
mb
20260902090039 69 306 0.0 5.0 0.00 0.00 0.00 79 1018.8
20260902085521 69 227 0.0 3.0 0.00 0.00 0.00 80 1018.7
20260902085014 69 283 0.0 1.0 0.00 0.00 0.00 79 1018.7
20260902084026 69 198 0.0 1.0 0.00 0.00 0.00 76 1018.6
20260902083515 69 229 0.0 0.0 0.00 0.00 0.00 80 1018.5
20260902083027 69 242 0.0 2.0 0.00 0.00 0.00 79 1018.5
20260902082522 69 233 0.0 2.0 0.00 0.00 0.00 78 1018.5
20260902081525 69 71 0.0 5.0 0.00 0.00 0.00 79 1018.5
20260902080436 68 305 0.0 1.0 0.00 0.00 0.00 82 1018.4
20260902075934 68 305 0.0 0.0 0.00 0.00 0.00 81 1018.4
20260902075419 68 180 0.0 1.0 0.00 0.00 0.00 82 1018.3
20260902074909 68 92 0.0 2.0 0.00 0.00 0.00 84 1018.3
20260902074413 68 184 0.0 2.0 0.00 0.00 0.00 84 1018.3
20260902073913 68 129 0.0 0.0 0.00 0.00 0.00 85 1018.2
20260902072906 67 71 0.0 6.0 0.00 0.00 0.00 85 1018.1
20260902072408 67 68 0.0 5.0 0.00 0.00 0.00 86 1018.1
20260902071912 66 68 0.0 1.0 0.00 0.00 0.00 87 1017.9
20260902071339 66 71 0.0 1.0 0.00 0.00 0.00 88 1017.9
20260902070838 65 75 0.0 1.0 0.00 0.00 0.00 88 1017.9
20260902070311 64 75 0.0 1.0 0.00 0.00 0.00 89 1017.9
20260902065809 64 82 0.0 0.0 0.00 0.00 0.00 89 1018.0
20260902065310 64 84 0.0 0.0 0.00 0.00 0.00 89 1017.9
20260902064810 64 73 0.0 0.0 0.00 0.00 0.00 89 1017.9
20260902064308 64 68 0.0 1.0 0.00 0.00 0.00 89 1017.9
20260902063317 63 67 0.0 1.0 0.00 0.00 0.00 90 1017.9
20260902062806 62 79 0.0 1.0 0.00 0.00 0.00 91 1017.9
20260902062308 62 83 0.0 0.0 0.00 0.00 0.00 91 1017.9
20260902061809 61 76 0.0 0.0 0.00 0.00 0.00 91 1017.9
20260902060810 60 82 0.0 0.0 0.00 0.00 0.00 91 1017.8
20260902055810 60 80 0.0 0.0 0.00 0.00 0.00 91 1017.7
20260902055310 60 78 0.0 0.0 0.00 0.00 0.00 91 1017.7
20260902054812 60 79 0.0 0.0 0.00 0.00 0.00 91 1017.9
20260902053809 60 79 0.0 0.0 0.00 0.00 0.00 91 1017.8
20260902053314 60 79 0.0 0.0 0.00 0.00 0.00 91 1017.8
20260902052812 60 79 0.0 0.0 0.00 0.00 0.00 91 1017.8
20260902051808 60 79 0.0 0.0 0.00 0.00 0.00 91 1017.9
20260902051238 60 79 0.0 0.0 0.00 0.00 0.00 91 1017.9
20260902050733 60 79 0.0 0.0 0.00 0.00 0.00 91 1017.9
20260902050234 60 79 0.0 0.0 0.00 0.00 0.00 91 1017.9
20260902045707 59 79 0.0 0.0 0.00 0.00 0.00 91 1017.9
20260902045217 59 79 0.0 0.0 0.00 0.00 0.00 91 1017.8
20260902044725 59 79 0.0 0.0 0.00 0.00 0.00 91 1017.8
20260902044142 59 79 0.0 0.0 0.00 0.00 0.00 91 1017.8
20260902043634 59 74 0.0 0.0 0.00 0.00 0.00 91 1017.8
20260902042610 59 74 0.0 0.0 0.00 0.00 0.00 91 1017.8
20260902042118 59 74 0.0 0.0 0.00 0.00 0.00 91 1017.8
20260902041609 59 74 0.0 0.0 0.00 0.00 0.00 91 1017.8
20260902041132 59 74 0.0 0.0 0.00 0.00 0.00 91 1017.8
20260902040612 59 74 0.0 0.0 0.00 0.00 0.00 90 1017.8
20260902040109 59 74 0.0 0.0 0.00 0.00 0.00 90 1017.9
20260902035610 59 74 0.0 0.0 0.00 0.00 0.00 90 1017.8
20260902035107 59 74 0.0 0.0 0.00 0.00 0.00 90 1017.9
20260902034610 59 74 0.0 0.0 0.00 0.00 0.00 90 1017.9
20260902034107 59 74 0.0 0.0 0.00 0.00 0.00 90 1017.9
20260902033608 59 74 0.0 0.0 0.00 0.00 0.00 90 1018.0
20260902033110 59 74 0.0 0.0 0.00 0.00 0.00 90 1018.0
20260902032608 59 74 0.0 0.0 0.00 0.00 0.00 90 1018.0
20260902031615 59 74 0.0 0.0 0.00 0.00 0.00 90 1018.0
20260902031107 59 74 0.0 0.0 0.00 0.00 0.00 90 1018.0
20260902030604 60 74 0.0 0.0 0.00 0.00 0.00 90 1018.1
20260902025544 60 74 0.0 0.0 0.00 0.00 0.00 90 1018.1
20260902025031 60 74 0.0 0.0 0.00 0.00 0.00 89 1018.2
20260902024518 60 74 0.0 0.0 0.00 0.00 0.00 89 1018.2
20260902024012 60 74 0.0 0.0 0.00 0.00 0.00 89 1018.3
20260902023533 59 70 0.0 0.0 0.00 0.00 0.00 89 1018.3
20260902023026 59 70 0.0 0.0 0.00 0.00 0.00 89 1018.3
20260902022507 60 69 0.0 0.0 0.00 0.00 0.00 89 1018.4
20260902022024 60 70 0.0 0.0 0.00 0.00 0.00 89 1018.5
20260902021530 60 70 0.0 0.0 0.00 0.00 0.00 89 1018.5
20260902021029 60 69 0.0 0.0 0.00 0.00 0.00 89 1018.5
20260902020538 60 72 0.0 0.0 0.00 0.00 0.00 89 1018.4
20260902020012 60 73 0.0 0.0 0.00 0.00 0.00 89 1018.4
20260902015532 59 85 0.0 0.0 0.00 0.00 0.00 89 1018.4
20260902015028 59 75 0.0 0.0 0.00 0.00 0.00 89 1018.4
20260902014534 59 68 0.0 0.0 0.00 0.00 0.00 89 1018.4
20260902014004 59 88 0.0 0.0 0.00 0.00 0.00 89 1018.4
20260902013530 59 67 0.0 0.0 0.00 0.00 0.00 89 1018.4
20260902013031 59 67 0.0 0.0 0.00 0.00 0.00 89 1018.5
20260902012519 59 63 0.0 0.0 0.00 0.00 0.00 89 1018.6
20260902012009 58 62 0.0 0.0 0.00 0.00 0.00 90 1018.5
20260902011504 58 62 0.0 0.0 0.00 0.00 0.00 90 1018.5
20260902010431 58 63 0.0 0.0 0.00 0.00 0.00 90 1018.6
20260902005931 58 63 0.0 0.0 0.00 0.00 0.00 90 1018.6
20260902005406 58 63 0.0 0.0 0.00 0.00 0.00 90 1018.6
20260902004907 58 62 0.0 0.0 0.00 0.00 0.00 90 1018.7
20260902004409 58 62 0.0 0.0 0.00 0.00 0.00 90 1018.7
20260902003908 58 63 0.0 0.0 0.00 0.00 0.00 90 1018.6
20260902003406 58 63 0.0 0.0 0.00 0.00 0.00 91 1018.8
20260902002907 58 62 0.0 0.0 0.00 0.00 0.00 91 1018.8
20260902002409 58 63 0.0 0.0 0.00 0.00 0.00 91 1018.8
20260902001841 57 62 0.0 0.0 0.00 0.00 0.00 91 1018.8
20260902001331 57 62 0.0 0.0 0.00 0.00 0.00 91 1018.9
20260901235806 57 63 0.0 0.0 0.00 0.00 0.00 91 1018.9
20260901235308 57 62 0.0 0.0 0.00 0.00 0.00 91 1018.9
20260901234814 57 62 0.0 0.0 0.00 0.00 0.00 90 1018.9
20260901234306 57 63 0.0 0.0 0.00 0.00 0.00 90 1018.9
20260901233808 57 62 0.0 0.0 0.00 0.00 0.00 90 1019.0
20260901233308 57 62 0.0 0.0 0.00 0.00 0.00 90 1019.0
20260901232308 57 62 0.0 0.0 0.00 0.00 0.00 90 1019.1
20260901231813 57 62 0.0 0.0 0.00 0.00 0.00 91 1019.2
20260901230810 57 62 0.0 0.0 0.00 0.00 0.00 91 1019.3
20260901225807 56 62 0.0 0.0 0.00 0.00 0.00 90 1019.3
20260901225306 56 62 0.0 0.0 0.00 0.00 0.00 90 1019.3
20260901224308 56 63 0.0 0.0 0.00 0.00 0.00 90 1019.4
20260901223811 56 62 0.0 0.0 0.00 0.00 0.00 90 1019.4
20260901223312 56 63 0.0 0.0 0.00 0.00 0.00 90 1019.4
20260901222805 56 62 0.0 0.0 0.00 0.00 0.00 90 1019.4
20260901222232 56 62 0.0 0.0 0.00 0.00 0.00 90 1019.3
20260901221737 57 62 0.0 0.0 0.00 0.00 0.00 90 1019.4
20260901220729 57 63 0.0 0.0 0.00 0.00 0.00 90 1019.4
20260901220230 57 62 0.0 0.0 0.00 0.00 0.00 90 1019.3
20260901215706 57 62 0.0 0.0 0.00 0.00 0.00 90 1019.4
20260901215207 57 62 0.0 0.0 0.00 0.00 0.00 90 1019.5
20260901214708 57 62 0.0 0.0 0.00 0.00 0.00 90 1019.4
20260901214209 57 62 0.0 0.0 0.00 0.00 0.00 90 1019.4
20260901213707 57 62 0.0 0.0 0.00 0.00 0.00 90 1019.4
20260901213213 57 62 0.0 0.0 0.00 0.00 0.00 90 1019.4
20260901212707 57 62 0.0 0.0 0.00 0.00 0.00 90 1019.4
20260901212206 57 63 0.0 0.0 0.00 0.00 0.00 89 1019.5
20260901211709 57 62 0.0 0.0 0.00 0.00 0.00 89 1019.5
20260901211207 57 63 0.0 0.0 0.00 0.00 0.00 89 1019.5
20260901210132 57 62 0.0 0.0 0.00 0.00 0.00 89 1019.6
20260901205636 57 62 0.0 0.0 0.00 0.00 0.00 89 1019.7
20260901204633 57 62 0.0 0.0 0.00 0.00 0.00 90 1019.9
20260901204133 57 62 0.0 0.0 0.00 0.00 0.00 89 1020.1
20260901203105 58 63 0.0 0.0 0.00 0.00 0.00 89 1020.1
20260901202605 58 62 0.0 0.0 0.00 0.00 0.00 89 1020.0
20260901202104 58 63 0.0 0.0 0.00 0.00 0.00 89 1020.1
20260901201609 58 62 0.0 0.0 0.00 0.00 0.00 89 1020.1
20260901200545 58 62 0.0 0.0 0.00 0.00 0.00 88 1019.9
20260901200045 58 62 0.0 0.0 0.00 0.00 0.00 88 1019.9
20260901195046 59 62 0.0 0.0 0.00 0.00 0.00 88 1019.9
20260901194541 59 62 0.0 0.0 0.00 0.00 0.00 88 1019.9
20260901194037 59 62 0.0 0.0 0.00 0.00 0.00 88 1020.1
20260901193519 59 62 0.0 0.0 0.00 0.00 0.00 87 1020.0
20260901193019 59 62 0.0 0.0 0.00 0.00 0.00 87 1020.0
20260901192523 59 61 0.0 0.0 0.00 0.00 0.00 86 1020.0
20260901192027 59 61 0.0 0.0 0.00 0.00 0.00 85 1019.8
20260901191513 59 61 0.0 0.0 0.00 0.00 0.00 85 1019.8
20260901191036 60 61 0.0 0.0 0.00 0.00 0.00 84 1019.5
20260901190536 60 61 0.0 0.0 0.00 0.00 0.00 83 1019.5
20260901190039 60 61 0.0 0.0 0.00 0.00 0.00 83 1019.5
20260901185532 60 61 0.0 0.0 0.00 0.00 0.00 82 1019.5
20260901184528 61 61 0.0 0.0 0.00 0.00 0.00 82 1019.4
20260901184030 61 61 0.0 0.0 0.00 0.00 0.00 81 1019.4
20260901183533 62 61 0.0 0.0 0.00 0.00 0.00 81 1019.5
20260901183034 62 61 0.0 0.0 0.00 0.00 0.00 81 1019.4
20260901182518 62 61 0.0 0.0 0.00 0.00 0.00 80 1019.5
20260901182033 62 61 0.0 0.0 0.00 0.00 0.00 79 1019.5
20260901181040 62 61 0.0 0.0 0.00 0.00 0.00 78 1019.6
20260901180544 63 61 0.0 0.0 0.00 0.00 0.00 79 1019.5
20260901180018 63 61 0.0 0.0 0.00 0.00 0.00 79 1019.5
20260901175037 64 216 0.0 0.0 0.00 0.00 0.00 77 1019.6
20260901174528 64 216 0.0 0.0 0.00 0.00 0.00 77 1019.7
20260901174018 64 216 0.0 0.0 0.00 0.00 0.00 77 1019.7
20260901173021 64 230 0.0 0.0 0.00 0.00 0.00 75 1019.8
20260901172527 64 311 0.0 0.0 0.00 0.00 0.00 75 1019.9
20260901171519 64 170 0.0 0.0 0.00 0.00 0.00 75 1019.8
20260901170934 65 198 0.0 0.0 0.00 0.00 0.00 75 1019.8
20260901165912 65 207 0.0 1.0 0.00 0.00 0.00 74 1019.9
20260901165415 65 165 0.0 1.0 0.00 0.00 0.00 74 1019.9
20260901164910 65 217 0.0 0.0 0.00 0.04 0.00 74 1019.9
20260901164411 65 214 0.0 0.0 0.00 0.04 0.00 74 1019.9
20260901163920 65 202 0.0 0.0 0.00 0.04 0.00 73 1019.9
20260901163411 66 210 0.0 0.0 0.00 0.04 0.00 72 1019.8
20260901162408 66 233 0.0 4.0 0.00 0.04 0.00 73 1019.9
20260901161911 66 240 0.0 2.0 0.00 0.04 0.00 72 1019.9
20260901160835 66 233 0.0 1.0 0.00 0.04 0.00 71 1019.8
20260901160334 66 244 0.0 1.0 0.00 0.04 0.00 71 1019.8
20260901155839 66 162 0.0 5.0 0.00 0.04 0.00 73 1019.8
20260901155338 66 272 0.0 5.0 0.00 0.04 0.00 71 1019.7
20260901154808 66 167 0.0 4.0 0.00 0.05 0.00 73 1019.7
20260901154307 66 47 0.0 4.0 0.00 0.05 0.00 72 1019.8
20260901152738 66 213 0.0 6.0 0.00 0.05 0.00 71 1019.7
20260901151707 66 89 0.0 6.0 0.00 0.06 0.00 74 1019.7
20260901151208 66 212 0.0 6.0 0.00 0.06 0.00 74 1019.7
20260901150711 66 233 0.0 4.0 0.00 0.07 0.00 74 1019.6
20260901150136 66 219 0.0 1.0 0.00 0.07 0.00 74 1019.7
20260901145634 66 261 0.0 2.0 0.00 0.07 0.00 74 1019.7
20260901145113 66 325 0.0 1.0 0.00 0.07 0.00 73 1019.6
20260901143614 66 226 0.0 0.0 0.00 0.08 0.00 74 1019.6
20260901143109 66 226 0.0 2.0 0.00 0.08 0.00 74 1019.6
20260901142108 65 235 0.0 2.0 0.00 0.09 0.00 75 1019.6
20260901141537 65 285 0.0 2.0 0.00 0.09 0.00 75 1019.6
20260901141040 65 255 0.0 8.0 0.00 0.10 0.00 76 1019.6
20260901140533 65 236 1.0 8.0 0.00 0.10 0.00 75 1019.6
20260901140051 65 236 1.0 8.0 0.00 0.10 0.00 75 1019.6
20260901135531 65 214 1.0 8.0 0.00 0.10 0.00 75 1019.6
20260901134527 65 231 0.0 4.0 0.00 0.10 0.00 78 1019.6
20260901134025 65 195 0.0 4.0 0.00 0.10 0.00 77 1019.6
20260901133538 65 338 0.0 6.0 0.00 0.12 0.00 75 1019.5
20260901133037 65 291 0.0 6.0 0.00 0.12 0.00 76 1019.5
20260901132053 65 302 1.0 8.0 0.00 0.16 0.00 75 1019.6
20260901131546 65 215 1.0 5.0 0.00 0.17 0.00 76 1019.5
20260901130528 65 246 2.0 10.0 0.00 0.17 0.00 75 1019.4
20260901130008 65 295 2.0 10.0 0.00 0.17 0.00 74 1019.4
20260901125538 65 300 1.0 10.0 0.00 0.17 0.00 75 1019.5
20260901125019 65 236 0.0 9.0 0.00 0.19 0.00 77 1019.4
20260901124520 66 243 1.0 9.0 0.00 0.19 0.00 76 1019.5
20260901124032 66 302 1.0 9.0 0.00 0.19 0.00 76 1019.5
20260901123543 65 299 1.0 9.0 0.00 0.19 0.00 73 1019.6
20260901123037 65 293 1.0 9.0 0.00 0.19 0.00 73 1019.6
20260901122539 65 225 1.0 8.0 0.00 0.19 0.00 73 1019.6
20260901122036 65 268 1.0 8.0 0.00 0.19 0.00 74 1019.5
20260901121501 65 267 1.0 11.0 0.00 0.19 0.00 74 1019.5
20260901120946 66 290 1.0 11.0 0.00 0.19 0.00 75 1019.5
20260901120444 66 296 1.0 6.0 0.00 0.19 0.00 76 1019.4
20260901115935 65 310 1.0 8.0 0.00 0.19 0.00 75 1019.5
20260901115434 65 351 1.0 8.0 0.00 0.19 0.00 75 1019.4
20260901114910 65 220 1.0 10.0 0.00 0.19 0.00 74 1019.4
20260901114335 66 219 1.0 10.0 0.00 0.19 0.00 73 1019.4
20260901113834 66 268 1.0 5.0 0.00 0.19 0.00 72 1019.3
20260901112810 65 305 1.0 7.0 0.00 0.19 0.00 70 1019.5
20260901112306 66 240 1.0 7.0 0.00 0.19 0.00 73 1019.4
20260901111806 66 295 1.0 6.0 0.00 0.19 0.00 71 1019.4
20260901111239 66 270 1.0 8.0 0.00 0.19 0.00 73 1019.3
20260901110737 66 224 1.0 8.0 0.00 0.19 0.00 72 1019.4
20260901110246 65 300 1.0 4.0 0.00 0.19 0.00 72 1019.3
20260901105211 65 255 2.0 10.0 0.00 0.19 0.00 71 1019.3
20260901104717 65 187 2.0 9.0 0.00 0.20 0.00 70 1019.3
20260901104212 66 236 2.0 9.0 0.00 0.20 0.00 70 1019.3
20260901103708 66 290 1.0 11.0 0.00 0.20 0.00 68 1019.3
20260901103210 66 289 2.0 11.0 0.00 0.20 0.00 70 1019.2
20260901102710 66 162 2.0 11.0 0.00 0.20 0.00 73 1019.2
20260901102214 65 196 2.0 11.0 0.00 0.20 0.00 74 1019.1
20260901101713 65 221 1.0 6.0 0.00 0.24 0.00 73 1019.1
20260901101141 65 271 1.0 12.0 0.00 0.24 0.00 74 1019.1
20260901095637 65 170 1.0 10.0 0.00 0.24 0.00 75 1018.9
20260901095136 65 247 1.0 10.0 0.00 0.25 0.00 75 1018.9
20260901094126 65 212 1.0 13.0 0.00 0.25 0.00 75 1018.8
20260901093116 65 270 1.0 8.0 0.00 0.27 0.00 77 1018.7
20260901092617 65 246 1.0 9.0 0.00 0.28 0.00 76 1018.7
20260901092110 66 240 1.0 9.0 0.00 0.29 0.00 72 1018.6
20260901091109 66 155 1.0 14.0 0.00 0.29 0.00 73 1018.5